Regional Weather Roundup
Issued by NWS

Home | Current Version | Previous Version | Text Only | Print | Product List | Glossary Off
Versions: 1 2 3 4 5 6 7 8 9 10 11 12 13 14 15 16 17 18 19 20 21 22 23 24 25 26 27 28 29 30 31 32 33 34 35 36 37 38 39 40 41 42 43 44 45 46 47 48 49 50

000
ASUS43 KLOT 270409
RWRIL

ILLINOIS REGIONAL WEATHER ROUNDUP
NATIONAL WEATHER SERVICE CHICAGO/ROMEOVILLE IL
1100 PM CDT THU MAY 26 2016

NOTE: "FAIR" INDICATES FEW OR NO CLOUDS BELOW 12,000 FEET WITH NO
SIGNIFICANT WEATHER AND/OR OBSTRUCTIONS TO VISIBILITY.

* THESE STATIONS ARE NOT UNDER NWS QUALITY CONTROL. THEY ALSO MAY NOT
  REPORT WEATHER SUCH AS PRECIPITATION OR FOG.

ILZ001-002-007-009-015-016-024-270500-
NORTHWEST ILLINOIS

CITY           SKY/WX    TMP DP  RH WIND       PRES   REMARKS
MOLINE         CLOUDY    77  63  61 W6        29.86F
STERLING*      CLOUDY    75  64  68 CALM      29.88F
SAVANNA*       MOCLDY    72  63  75 CALM      29.86F
$$

ILZ003-004-008-010-011-017-018-270500-
NORTH CENTRAL ILLINOIS

CITY           SKY/WX    TMP DP  RH WIND       PRES   REMARKS
ROCKFORD       CLOUDY    71  66  84 S3        29.90R
FREEPORT*      PTCLDY    68  60  77 S5        29.90S
ROCHELLE*      CLOUDY    72  66  83 S5        29.89F
DE KALB*       CLOUDY    72  67  85 S3        29.90S
$$

ILZ005-006-012>014-019>023-270500-
NORTHEAST ILLINOIS

CITY           SKY/WX    TMP DP  RH WIND       PRES   REMARKS
CHICAGO-OHARE  CLOUDY    76  64  66 E6        29.88S
CHICAGO-MIDWAY CLOUDY    79  63  57 S10       29.90R HX  80
AURORA         CLOUDY    74  66  76 S5        29.89S
LANSING*       CLOUDY    73  65  77 S10       29.92R
JOLIET*        CLOUDY    77  69  75 S7        29.91S
WAUKEGAN       CLOUDY    66  62  87 CALM      29.88S
DUPAGE AIRPORT CLOUDY    71  65  81 S6        29.89R
KANKAKEE*      CLOUDY    71  65  83 S13       29.94S
WHEELING       MOCLDY    71  64  78 SE5       29.90S
MORRIS*        CLOUDY    76  67  74 SW9       29.90S
ROMEOVILLE*    CLOUDY    76  65  70 SW10G17   29.90S
NORTHERLY ISL    N/A     69  61  75 S3          N/A
NORTHERLY ISL    N/A     69  61  75 S3          N/A
$$

LMZ740>746-270500-
SOUTHERN LAKE MICHIGAN

STATION/POSITION SKY/WX   TEMP    WIND        PRES    VSBY  WAVE
                          AIR SEA DIR/SP/G                  HT/PER
                          (F)     (DEG/KT/KT) (MB)    (MI)  (FT/S)
SOUTHERN BUOY              57 50  150/  8/  8 1011.7F         0
WILMETTE HARBOR            61 58  180/  4/  6   N/A           0
HARRISON CRIB              78     140/ 11/ 12   N/A
BURNHAM HARBOR             72     190/  6       N/A
CALUMET HARBOR                                1011.7F
BURNS HARBOR               76     180/ 12/ 17 1013.2S
MICHIGAN CITY              76     140/  9/ 10   N/A
MICHIGAN CITY 6N           68 61  200/  8/ 10   N/A           0
ST. JOSEPH                 68 64  170/  6/  6   N/A           0
$$

ILZ025>027-034>036-040-047-049-050-058-095>099-270500-
WEST-CENTRAL ILLINOIS

CITY           SKY/WX    TMP DP  RH WIND       PRES   REMARKS
QUINCY         CLOUDY    71  63  75 W20G30    29.89F
GALESBURG*     CLOUDY    71  67  87 CALM      29.89F
MACOMB*        CLOUDY    73  69  86 SE7       29.90S
JACKSONVILLE*  CLOUDY    72  66  82 SE5       29.89F
PITTSFIELD*    CLOUDY    73  70  90 SE5       29.88F
$$

ILZ028>032-037-038-041>044-048-051>054-059>061-270500-
CENTRAL ILLINOIS

CITY           SKY/WX    TMP DP  RH WIND       PRES   REMARKS
PONTIAC        CLOUDY    74  69  84 S10       29.93S
BLOOMINGTON    CLOUDY    70  70 100 S12       29.95S
DECATUR        MOCLDY    70  63  78 S10       29.94S
PEORIA         CLOUDY    74  68  81 S7        29.90F
LACON*         CLOUDY    73  68  82 S3        29.89F
LINCOLN*       CLOUDY    70  68  92 CALM      29.93F
SPRINGFIELD    CLOUDY    71  66  84 S6        29.91F
TAYLORVILLE    CLOUDY    68  65  88 S13       29.93F
$$

ILZ033-039-045-046-055>057-062-063-270500-
EAST-CENTRAL ILLINOIS

CITY           SKY/WX    TMP DP  RH WIND       PRES   REMARKS
CHAMPAIGN      CLOUDY    68  64  87 S12       29.96S
RANTOUL*       MOCLDY    69  67  92 S6        29.96S
MATTOON        CLOUDY    67  62  84 S9        29.95F
PARIS*         CLOUDY    66  65  94 S3        29.98S
$$

ILZ079-100>102-270500-
SOUTHWEST ILLINOIS

CITY           SKY/WX    TMP DP  RH WIND       PRES   REMARKS
ALTON          HVY RAIN  71  63  75 S20       29.93S
BELLEVILLE     CLOUDY    70  68  94 E7        29.93S
CAHOKIA*       LGT RAIN  71  64  78 S8        29.92F
SPARTA*        CLOUDY    68  64  84 S8        29.96F
$$

ILZ064>066-069>071-074>076-080>082-084>086-088>090-092>094-270500-
SOUTH-CENTRAL ILLINOIS

CITY           SKY/WX    TMP DP  RH WIND       PRES   REMARKS
CARBONDALE     CLOUDY    67  63  87 S6        29.95F
CAIRO*         CLOUDY    67  65  93 S10G17    29.96F
EFFINGHAM*     CLOUDY    67  65  96 SE3       29.98F
MARION         CLOUDY    68  64  88 S6        29.97F
MT. VERNON     CLOUDY    68  61  77 SW9       29.99R
CENTRALIA*     CLOUDY    69  66  91 S12       29.96S
SALEM*         CLOUDY    70  64  81 S6        29.97S
METROPOLIS*    CLOUDY    68  66  93 S5        29.99F
$$

ILZ067-068-072-073-078-083-087-091-270500-
SOUTHEAST ILLINOIS

CITY           SKY/WX    TMP DP  RH WIND       PRES   REMARKS
LAWRENCEVILLE  MOCLDY    67  65  93 SW3       29.97F
FLORA*         PTCLDY    66  64  92 SE6       29.97F
FAIRFIELD*     CLOUDY    66  64  91 CALM      29.96F
HARRISBURG*    CLOUDY    68  65  90 SW7       29.99R
ROBINSON*      CLOUDY    66  64  93 S7        29.98S
CARMI*         CLOUDY    64  64  99 CALM      29.97F
$$

ABBREVIATIONS USED IN REMARKS
   TC - TEMPERATURE IN CELSIUS
  WCI - WIND CHILL INDEX
   HX - HEAT INDEX
  VSB - VISIBILITY
$$





USA.gov is the U.S. government's official web portal to all federal, state and local government web resources and services.